| time (UTC) | temp F | wind direction | speed knots | gust knots | rain 1hr in | rain 24hr in | rain mn in | humidity % | barometer mb |
| 20260502203927 | 66 | 315 | 0.0 | 1.7 | 0.00 | 0.00 | 0.00 | 40 | 1017.8 |
| 20260502202424 | 67 | 293 | 0.9 | 2.6 | 0.00 | 0.00 | 0.00 | 39 | 1017.9 |
| 20260502200921 | 67 | 315 | 0.0 | 1.7 | 0.00 | 0.00 | 0.00 | 39 | 1017.9 |
| 20260502195418 | 68 | 315 | 0.0 | 0.9 | 0.00 | 0.00 | 0.00 | 38 | 1018.0 |
| 20260502193915 | 68 | 284 | 0.0 | 0.9 | 0.00 | 0.00 | 0.00 | 37 | 1017.9 |
| 20260502192412 | 69 | 315 | 0.0 | 0.9 | 0.00 | 0.00 | 0.00 | 36 | 1018.0 |
| 20260502190909 | 69 | 315 | 0.0 | 0.0 | 0.00 | 0.00 | 0.00 | 35 | 1018.1 |
| 20260502185406 | 70 | 315 | 0.0 | 0.9 | 0.00 | 0.00 | 0.00 | 34 | 1018.2 |
| 20260502183903 | 71 | 315 | 0.0 | 0.9 | 0.00 | 0.00 | 0.00 | 33 | 1018.0 |
| 20260502182400 | 72 | 315 | 0.0 | 0.0 | 0.00 | 0.00 | 0.00 | 37 | 1018.0 |
| 20260502180857 | 73 | 0 | 0.0 | 0.9 | 0.00 | 0.00 | 0.00 | 31 | 1018.0 |
| 20260502162337 | 79 | 270 | 0.9 | 1.7 | 0.00 | 0.00 | 0.00 | 26 | 1018.3 |
| 20260502152327 | 77 | 97 | 0.0 | 3.5 | 0.00 | 0.00 | 0.00 | 27 | 1018.9 |
| 20260502123750 | 81 | 284 | 0.9 | 0.9 | 0.00 | 0.00 | 0.00 | 28 | 1020.7 |
| 20260502122247 | 79 | 287 | 0.9 | 2.6 | 0.00 | 0.00 | 0.00 | 28 | 1020.9 |
| 20260502120744 | 77 | 301 | 0.0 | 3.5 | 0.00 | 0.00 | 0.00 | 30 | 1021.1 |
| 20260502115241 | 76 | 272 | 2.6 | 2.6 | 0.00 | 0.00 | 0.00 | 29 | 1021.2 |
| 20260502110732 | 71 | 73 | 2.6 | 3.5 | 0.00 | 0.00 | 0.00 | 33 | 1021.8 |
| 20260502105229 | 70 | 28 | 0.0 | 4.3 | 0.00 | 0.00 | 0.00 | 35 | 1022.0 |
| 20260502100719 | 67 | 274 | 0.9 | 1.7 | 0.00 | 0.00 | 0.00 | 38 | 1022.5 |